Showing default

ASBM-2, 60423

Orbit data source: Space-Track

ASBM-2, 60423 is a Norwegian payload satellite in HEO that was launched on Mon, 12 Aug 2024 UTC via an FALCON 9 launch vehicle from the Air Force Western Test Range (AFWTR). Payloads include a variety of satellites, spacecraft, and rockets equipped with specific instruments for various scientific and technological missions. These include communications satellites like Starlink; space stations such as the ISS; scientific satellites like the Hubble; Earth observation satellites from companies like Planet Labs, Umbra, and HawkEye 360; GPS; miniature CubeSats for education and research; and military/defense satellites.

Loading next visibility...
ASBM-2 details
Identifier
60423, 2024-143B
Orbit
HEO
Last TLE update1 day ago
Origin
Flag of NOSPNOR/SFSSC (NO / NOR)
ManufacturerNGIS SSG
MissionOperational spacecraft
Bus & MotorGEOSTAR-3, BT-4?
Mass3,505 kg wet, 1,925 kg dry
Launch date (UTC)
2024-08-12 (4 months ago)
Launch vehicle
FALCON 9
Launch site
Air Force Western Test Range (AFWTR)
Object type
Payload
Rocket body
Debris
Shape & HBRUnknown
Radar Cross SectionLarge (>1 m²)

Expand to show TLE details & history

TLE from 1 day ago
0 ASBM-2
1 60423U 24143B   24360.69469329 -.00000064  00000-0  00000-0 0  9993
2 60423  62.4031  65.9796 5361678 268.2097  32.7546  1.50422134  3502
Epoch: 2024-12-25T16:40Z
Definitive object data (Epoch: 2024-12-25T16:40:21.5Z)
Latitude-0.00014°
Longitude81.25519°
Altitude16,979.063 km
Speed4.663 km/s
True Right ascension04h 24m 07s
True Declination0° 00' 00"
Sunlit
Object was in daylight at TLE epoch
Visualization TLE readout
Latitude-20.63967°
Longitude-87.46582°
Altitude12,294.608 km
Speed5.506 km/s
Apparent Right ascension16h 04m 31s
Apparent Declination-33° 13' 08"
Sunlit
Object is in daylight
Visualization observer readout
Local Sidereal Time21:39:15
Azimuth240.043° WSW
Elevation-16.317°
Doppler factor1
Orbital elements
Apogee altitude43,048.47 km
Perigee altitude8,545.787 km
Semi-major axis32,175.266 km
Eccentricity0.5361678
Inclination62.4031°
RAAN65.9796°
Arg. of periapsis268.2097°
True anomaly91.81256°
Mean anomaly32.7546°
Eccentric anomaly59.11999°
Mean motion0.37606 °/min
BSTARUnknown
Orbital period957.29 mins
Loading maneuver chart data...
Loading historical data...
Loading historical data...
Loading historical data...
Loading historical data...
Loading historical data...
Loading historical data...
Loading historical data...
Other satellites on launch #143 in the year 2024 (2024-08-12 UTC)

ASBM-2 Visibility forecast

Observer location: undefined°, undefined

Span
Click to sort rows by Start time (UTC) header in descending order
Start Az.
Max El. time (UTC)
Max El. Az.
Max El.
End time (UTC)
End Az.
775 mins2024-12-27 00:55:08.259Z97.806° ESE2024-12-27 05:25:08.259Z42.575° NE36.295°2024-12-27 13:50:08.259Z122.016° SE
|